Location: Observatoire
(46.1952°N, 5.3391°E)
Time: 07:33:36
(UTC+01:00)

S-56A Canister/Altair - Visible Passes

Search period start: 18 February 2026 00:00
Search period end: 28 February 2026 00:00
Orbit: 632 x 2485 km, 38.9° (Epoch: 17 February)

Date Brightness Start Highest point End Pass type
(mag) Time Alt. Az. Time Alt. Az. Time Alt. Az.
18 Feb 11.2 01:57:56 10° E 01:57:56 10° E 01:57:58 10° E visible
18 Feb 9.7 03:55:12 41° SSE 03:55:12 41° SSE 04:03:49 10° ESE visible
18 Feb 10.1 05:52:28 22° WSW 05:56:58 29° SSW 06:07:34 10° SSE visible
19 Feb 10.2 03:22:22 29° SE 03:22:22 29° SE 03:28:02 10° ESE visible
19 Feb 9.9 05:19:38 29° SW 05:21:43 31° SSW 05:32:11 10° SSE visible
20 Feb 10.8 02:49:36 18° ESE 02:49:36 18° ESE 02:52:16 10° ESE visible
20 Feb 9.8 04:46:52 33° SSW 04:46:52 33° SSW 04:56:43 10° SSE visible
20 Feb 10.7 06:45:53 10° WSW 06:50:34 14° SW 06:55:50 10° SSW visible
21 Feb 10.1 04:14:08 30° S 04:14:08 30° S 04:21:12 10° SE visible
21 Feb 10.5 06:11:25 12° WSW 06:15:23 15° SW 06:21:27 10° S visible
22 Feb 10.5 03:41:28 22° SSE 03:41:28 22° SSE 03:45:39 10° SE visible
22 Feb 10.4 05:38:44 16° SW 05:40:14 17° SW 05:46:46 10° S visible
23 Feb 10.9 03:08:51 14° SE 03:08:51 14° SE 03:10:07 10° SE visible
23 Feb 10.4 05:06:08 18° SSW 05:06:08 18° SSW 05:11:53 10° S visible
24 Feb 10.6 04:33:34 16° S 04:33:34 16° S 04:36:53 10° S visible
25 Feb 10.9 04:01:01 12° SSE 04:01:01 12° SSE 04:01:47 10° SSE visible
27 Feb 9.3 20:00:02 10° SSE 20:00:43 11° SSE 20:00:43 11° SSE visible
